Back to catalog

INTELSAT 11

PAS 11

AliveCommunicationsGEO
NORAD 32253·PAYLOAD· XX

Launched Oct 5, 2007 from Guiana Space Centre

Loading…

TLE

FreshSource: CelesTrak SupGP

Epoch: Sep 14, 2026, 00:00 UTC

1 32253C 07044B   26257.00000000 -.00000158  00000+0  00000+0 0  2572
2 32253   3.7902  77.5454 0008375 119.5893 251.1729  0.99053806    17

Track INTELSAT 11 in real time with AllMySat

Download on the App Store